Simultaneous Nadir Overpasses (SNOs) Predictions

Prediction of SNOs between AQUA and METOP-A Satellite Orbit:

Table of predicted SNOs for the next 14.0 days since TLE Epoch: 1/15/2016
Index Date (AQUA) Time (AQUA) Lat,Lon (AQUA) SZA (AQUA ) Date (METOP-A) Time (METOP-A) Lat,Lon (METOP-A) SZA (METOP-A ) Distance(km) Time Diff (sec)
1 01/17/2016 02:07:28 73.86, 142.27 94.80 01/17/2016 02:06:30 73.85, 142.36 94.80 3.01 58
2 01/17/2016 02:56:55 -73.92, -50.24 85.15 01/17/2016 02:57:10 -73.92, -50.14 85.15 3.01 15
3 01/17/2016 03:46:32 74.42, 116.25 95.39 01/17/2016 03:47:40 74.42, 118.45 95.31 65.93 68
4 01/19/2016 21:41:44 73.84,-151.26 94.22 01/19/2016 21:40:53 73.85,-151.24 94.24 1.27 51
5 01/19/2016 22:31:11 -73.90, 16.24 85.72 01/19/2016 22:31:33 -73.92, 16.26 85.71 1.97 22
6 01/22/2016 17:16:00 73.84, -84.83 93.61 01/22/2016 17:15:16 73.84, -84.84 93.62 0.40 44
7 01/22/2016 18:05:27 -73.90, 82.67 86.33 01/22/2016 18:05:56 -73.91, 82.66 86.33 1.05 29
8 01/25/2016 12:50:15 73.86, -18.44 92.98 01/25/2016 12:49:37 73.88, -18.34 92.99 3.51 38
9 01/25/2016 13:39:42 -73.92, 149.07 86.97 01/25/2016 13:40:18 -73.90, 149.05 87.00 2.41 36
10 01/28/2016 08:24:30 73.85, 48.02 92.26 01/28/2016 08:24:00 73.86, 48.03 92.27 1.06 30
11 01/28/2016 09:13:57 -73.91,-144.46 87.69 01/28/2016 09:14:40 -73.94,-144.45 87.67 3.02 43




NCC Satellite Simultaneous Nadir Overpasses (SNOs) Prediction Service
